This demonstration page uses our WeatherBlox Daily Observations layout. Learn more.

Left ArrowRight Arrow

Hourly Observations for March 8, 2015

Temp ( °F °C ) Dew Point ( °F °C ) Humidity (%) Winds ( mph kmh ) Pressure ( in mb ) Visibility ( mi km ) Precip ( " mm )
12:16 am 00:16 Clear 32 undefined 21 -6 64 64 W 6 9 30.24 1024 10 16 N/A
12:35 am 00:35 Clear 32 undefined 23 -5 69 69 W 10 17 30.24 1024 10 16 N/A
12:56 am 00:56 Clear 32 undefined 23 -5 69 69 W 8 13 30.24 1024 10 16 N/A
1:16 am 01:16 Clear 32 undefined 23 -5 69 69 W 6 9 30.24 1024 10 16 N/A
1:35 am 01:35 Clear 30 -1 23 -5 75 75 W 7 11 30.24 1024 10 16 N/A
1:56 am 01:56 Clear 32 undefined 23 -5 69 69 WSW 7 11 30.24 1024 10 16 N/A
3:16 am 03:16 Clear 32 undefined 23 -5 69 69 WSW 9 15 30.24 1024 10 16 N/A
3:35 am 03:35 Clear 30 -1 23 -5 75 75 W 9 15 30.24 1024 10 16 N/A
3:56 am 03:56 Clear 30 -1 25 -4 80 80 W 9 15 30.24 1024 10 16 N/A
4:16 am 04:16 Clear 30 -1 23 -5 75 75 W 8 13 30.24 1024 10 16 N/A
4:35 am 04:35 Clear 28 -2 23 -5 80 80 W 8 13 30.24 1024 10 16 N/A
4:56 am 04:56 Clear 30 -1 23 -5 75 75 W 8 13 30.24 1024 10 16 N/A
5:16 am 05:16 Clear 30 -1 23 -5 75 75 WSW 9 15 30.24 1024 10 16 N/A
5:35 am 05:35 Clear 28 -2 23 -5 80 80 W 9 15 30.24 1024 10 16 N/A
5:56 am 05:56 Clear 30 -1 23 -5 75 75 W 8 13 30.24 1024 10 16 N/A
6:16 am 06:16 Clear 28 -2 23 -5 80 80 WSW 7 11 N/A 10 16 N/A
6:35 am 06:35 Clear 28 -2 21 -6 74 74 WSW 6 9 30.24 1024 10 16 N/A
6:56 am 06:56 Clear 28 -2 27 -3 93 93 WSW 6 9 30.24 1024 10 16 N/A
7:16 am 07:16 Clear 30 -1 23 -5 75 75 SW 6 9 30.24 1024 10 16 N/A
7:35 am 07:35 Clear 28 -2 21 -6 74 74 SW 5 7 30.24 1024 10 16 N/A
7:56 am 07:56 Clear 28 -2 25 -4 86 86 SW 5 7 30.24 1024 10 16 N/A
8:16 am 08:16 Sunny 28 -2 25 -4 86 86 WSW 3 6 30.24 1024 10 16 N/A
8:35 am 08:35 Sunny 28 -2 21 -6 74 74 WSW 5 7 30.27 1025 10 16 N/A
8:56 am 08:56 Sunny 30 -1 21 -6 69 69 SSW 5 7 30.24 1024 10 16 N/A
9:15 am 09:15 Sunny 32 undefined 23 -5 69 69 N N/A 30.24 1024 10 16 N/A
9:35 am 09:35 Sunny 32 undefined 23 -5 69 69 N N/A 30.27 1025 10 16 N/A
9:56 am 09:56 Sunny 34 1 23 -5 65 65 N N/A 30.27 1025 10 16 N/A
10:16 am 10:16 Sunny 36 2 23 -5 60 60 S 5 7 30.27 1025 10 16 N/A
10:35 am 10:35 Sunny 37 3 23 -5 56 56 N N/A 30.27 1025 10 16 N/A
10:56 am 10:56 Sunny 39 4 23 -5 52 52 N N/A 30.27 1025 10 16 N/A
11:16 am 11:16 Sunny 39 4 23 -5 52 52 N N/A 30.27 1025 10 16 N/A
11:35 am 11:35 Sunny 41 5 23 -5 49 49 N N/A 30.24 1024 10 16 N/A
11:56 am 11:56 Sunny 41 5 23 -5 49 49 N N/A 30.24 1024 10 16 N/A
12:15 pm 12:15 Sunny 41 5 23 -5 49 49 N N/A 30.24 1024 10 16 N/A
12:35 pm 12:35 Sunny 43 6 21 -6 42 42 N N/A 30.27 1025 10 16 N/A
12:56 pm 12:56 Sunny 45 7 21 -6 39 39 N N/A 30.27 1025 10 16 N/A
1:15 pm 13:15 Sunny 45 7 21 -6 39 39 N N/A 30.24 1024 10 16 N/A
1:36 pm 13:36 Sunny 45 7 21 -6 39 39 SSE 5 7 30.24 1024 10 16 N/A
1:56 pm 13:56 Sunny 45 7 23 -5 42 42 SE 7 11 30.24 1024 10 16 N/A
2:15 pm 14:15 Sunny 43 6 23 -5 46 46 SSE 7 11 30.24 1024 10 16 N/A
2:36 pm 14:36 Sunny 43 6 23 -5 46 46 SSE 6 9 30.21 1023 10 16 N/A
2:56 pm 14:56 Sunny 45 7 23 -5 42 42 S 7 11 30.21 1023 10 16 N/A
3:15 pm 15:15 Sunny 45 7 25 -4 46 46 S 7 11 30.21 1023 10 16 N/A
3:36 pm 15:36 Sunny 43 6 25 -4 49 49 S 8 13 30.21 1023 10 16 N/A
3:56 pm 15:56 Sunny 43 6 23 -5 46 46 S 7 11 30.21 1023 10 16 N/A
4:15 pm 16:15 Sunny 45 7 23 -5 42 42 SSE 7 11 30.21 1023 10 16 N/A
4:36 pm 16:36 Sunny 45 7 23 -5 42 42 S 8 13 30.21 1023 10 16 N/A
4:56 pm 16:56 Sunny 45 7 23 -5 42 42 S 7 11 30.21 1023 10 16 N/A
5:15 pm 17:15 Sunny 45 7 25 -4 46 46 S 7 11 30.21 1023 10 16 N/A
5:36 pm 17:36 Sunny 45 7 23 -5 42 42 SSE 7 11 30.18 1022 10 16 N/A
5:56 pm 17:56 Sunny 45 7 25 -4 46 46 SSE 6 9 30.18 1022 10 16 N/A
6:15 pm 18:15 Sunny 45 7 23 -5 42 42 SSE 6 9 30.18 1022 10 16 N/A
6:36 pm 18:36 Sunny 43 6 25 -4 49 49 SE 3 6 30.18 1022 10 16 N/A
6:56 pm 18:56 Sunny 43 6 25 -4 49 49 SSE 5 7 30.18 1022 10 16 N/A
7:15 pm 19:15 Sunny 41 5 25 -4 53 53 SSE 3 6 30.18 1022 10 16 N/A
7:36 pm 19:36 Sunny 41 5 23 -5 49 49 N N/A 30.18 1022 10 16 N/A
7:55 pm 19:55 Clear 41 5 23 -5 49 49 SE 3 6 30.18 1022 10 16 N/A
8:16 pm 20:16 Clear 39 4 23 -5 52 52 N N/A 30.21 1023 10 16 N/A
8:36 pm 20:36 Clear 37 3 25 -4 60 60 SE 3 6 30.21 1023 10 16 N/A
8:55 pm 20:55 Clear 36 2 25 -4 65 65 SE 3 6 30.21 1023 10 16 N/A
9:16 pm 21:16 Clear 37 3 23 -5 56 56 SSE 6 9 30.21 1023 10 16 N/A
9:36 pm 21:36 Clear 37 3 23 -5 56 56 SSE 5 7 30.21 1023 10 16 N/A
9:55 pm 21:55 Clear 37 3 23 -5 56 56 SSE 6 9 30.21 1023 10 16 N/A
10:16 pm 22:16 Clear 37 3 23 -5 56 56 SSE 5 7 30.18 1022 10 16 N/A
10:36 pm 22:36 Clear 37 3 23 -5 56 56 S 6 9 30.18 1022 10 16 N/A
10:55 pm 22:55 Clear 39 4 23 -5 52 52 N N/A 30.15 1021 10 16 N/A
11:16 pm 23:16 Clear 37 3 23 -5 56 56 N N/A 30.21 1023 10 16 N/A
11:36 pm 23:36 Clear 36 2 25 -4 65 65 N N/A 30.21 1023 10 16 N/A
11:55 pm 23:55 Clear 34 1 25 -4 70 70 N N/A 30.21 1023 10 16 N/A

Powered by AerisWeather